{"data":{"norad_id":51846,"intl_designator":"2022-019Y","name":"JILIN-1 GAOFEN 03D13","alt_names":[],"object_type":"PAYLOAD","status":"ACTIVE","operator":null,"country":"PRC","launch_date":"2022-02-27","launch_site_code":"WSC","launch_vehicle":null,"mission":null,"orbit_class":"UNKNOWN","rcs_meters":null,"size_class":null,"mass_kg":null,"dimensions":null,"purposes":[],"wikipedia_slug":null,"has_3d_model":false,"image_url":null,"decayed_at":null,"tle_current":{"epoch":"2026-05-24T23:11:46.184928Z","epoch_age_seconds":81210,"freshness":"FRESH","line1":"1 51846U 22019Y   26144.96650677  .00239207  00000+0  91057-3 0  9998","line2":"2 51846  97.3634 239.8544 0005166 216.8287 143.2630 15.86946634236243","mean_motion":15.86946634,"eccentricity":0.0005166,"inclination_deg":97.3634,"raan_deg":239.8544,"arg_perigee_deg":216.8287,"mean_anomaly_deg":143.263,"bstar":0.00091057,"rev_number":23624,"period_min":90.740291396591,"perigee_km":307.3935623476,"apogee_km":314.30462277843,"semimajor_km":6688.986092563,"source":"CELESTRAK","updated_at":"2026-05-25T13:37:57.537360Z"}}}